Погода в Ярославке

Россия / Чувашская Республика     55°59′30″N   46°36′33″E
темп.,
°C
ветер,
м/с
пор.,
м/с
влажн.,
%
обл.,
%
осадки,
мм/ч
давл.,
гПа
погр.,
м
10 апреля, сб
сб1000:00−1ссв119363 0.0 102810
03:00−2всв22956 0.0 102914
06:00−3в2399100 0.0 103075
09:000всв34100100 0.0 1030212
12:00+1в35100100 0.0 1029261
15:00+2в25100100 0.1 1029194
18:00+1всв25100100 0.1 1027148
21:00+1св24100100 0.1 102796
11 апреля, вс
вс1100:00+1с25100100 0.0 1026114
03:00+1ссз26100100 0.0 1027180
06:000с3598100 0.0 1029279
09:00+1с349753 0.0 1030280
12:00+5с2384100 0.0 1031315
15:00+6с2378100 0.0 1032270
18:00+4в1178100 0.0 103310
21:00+3всв2280100 0.0 103412
12 апреля, пн
пн1200:00+2всв2281100 0.0 103516
03:00+2всв4785100 0.0 1036117
06:00+2всв3883100 0.0 1036165
09:00+3в41079100 0.1 1037258
12:00+4всв51180100 0.0 1036305
15:00+6в4887100 0.1 1036272
18:00+5в5119474 0.3 1034234
21:00+3вюв3996100 0.3 1034140
13 апреля, вт
вт1300:00+4вюв389694 0.0 1033122
03:00+4юв349397 0.0 103259
06:00+5юв359177 0.0 103274
09:00+11ююв477897 0.0 1031234
12:00+16ю476299 0.0 1029716
15:00+17ю5654100 0.0 10281003
18:00+13ю356461 0.0 102779
21:00+9ююв35725 0.0 102766
14 апреля, ср
ср1400:00+8ю477541 0.0 1027107
03:00+7ю36741 0.0 102672
06:00+7ю36735 0.0 102689
09:00+13ююз475486 0.0 1025307
12:00+18ююз56425 0.0 1024765
15:00+18ююз564039 0.0 10231026
18:00+15ю345796 0.0 102264
21:00+11ю3565100 0.0 102257